Date String (YYYY-MM-DD hh:mm:ss) UTC,Instrument flags,absolute air pressure of the measurement (hPa),sample flow rate (lpm),inlet stack bypass flow (lpm),air temperature of the measurement (°C),ambient temperature measured by the external sensor (°C),aerosol sample conditioner tube jacket temperature (°C),OPC LED temperature (°C),internal box temperature (°C),relative humidity of the measurement (%),span deviation,mass concentration of particles derived from Lorenz-Mie calculation of OPC scattering (μg/m³),mass concentration of particles derived from Lorenz-Mie calculation of OPC scattering (μg/m³),mass concentration of particles derived from Lorenz-Mie calculation of OPC scattering (μg/m³)
DateTimeUTC,F1_M11,P_M11,Q1_M11,Q2_M11,T1_M11,T2_M11,T3_M11,T4_M11,T5_M11,U1_M11,ZSPAN_M11,X0_M11,X2_M11,X1_M11
2023-06-23 07:00:00,SystemResetWarning,0830.9,4.99,000.00,030.7,028.3,000.0,039.2,031.7,31.8,0001.0,0008.34,0005.02,0004.37
2023-06-23 07:01:00,SystemResetWarning,0830.9,5.00,000.00,030.7,028.3,000.0,039.2,031.7,32.0,0001.6,0008.81,0004.99,0004.36
2023-06-23 07:02:00,SystemResetWarning,0830.9,5.00,000.00,030.7,028.4,000.0,039.2,031.7,31.9,0001.6,0008.91,0004.97,0004.35
2023-06-23 07:03:00,SystemResetWarning,0830.9,5.00,000.00,030.7,028.4,000.0,039.2,031.7,31.7,0001.6,0008.97,0004.94,0004.34
2023-06-23 07:04:00,SystemResetWarning,0830.9,5.01,000.00,030.7,028.5,000.0,039.2,031.7,31.7,0001.3,0008.85,0004.88,0004.34
2023-06-23 07:05:00,SystemResetWarning,0830.9,5.00,000.00,030.7,028.5,000.0,039.2,031.7,31.7,0001.8,0008.96,0004.87,0004.34
2023-06-23 07:06:00,SystemResetWarning,0830.8,5.00,000.00,030.7,028.5,000.0,039.2,031.8,31.5,0001.9,0009.38,0004.87,0004.33
2023-06-23 07:07:00,SystemResetWarning,0830.9,5.00,000.00,030.7,028.5,000.0,039.2,031.8,31.8,0001.7,0009.52,0004.89,0004.35
2023-06-23 07:08:00,SystemResetWarning,0830.9,5.00,000.00,030.7,028.6,000.0,039.2,031.7,31.8,0002.2,0010.09,0004.92,0004.37
2023-06-23 07:09:00,SystemResetWarning,0830.9,5.00,000.00,030.7,028.6,000.0,039.2,031.8,31.9,0002.8,0010.30,0004.97,0004.37
2023-06-23 07:10:00,SystemResetWarning,0830.8,5.00,000.00,030.7,028.6,000.0,039.2,031.8,32.1,0002.7,0010.78,0004.94,0004.36
2023-06-23 07:11:00,SystemResetWarning,0830.8,5.00,000.00,030.7,028.6,000.0,039.2,031.8,32.0,0002.1,0010.77,0004.92,0004.35
2023-06-23 07:12:00,SystemResetWarning,0830.8,5.00,000.00,030.7,028.6,000.0,039.2,031.9,32.0,0001.8,0010.28,0004.90,0004.34
2023-06-23 07:13:00,SystemResetWarning,0830.8,5.00,000.00,030.7,028.7,000.0,039.2,031.8,32.0,0001.3,0010.07,0004.91,0004.34
2023-06-23 07:14:00,SystemResetWarning,0830.8,5.00,000.00,030.7,028.7,000.0,039.2,031.8,31.9,0001.0,0010.16,0004.89,0004.34
2023-06-23 07:15:00,SystemResetWarning,0830.8,4.99,000.00,030.7,028.7,000.0,039.2,031.8,31.9,0001.1,0010.68,0004.89,0004.33
2023-06-23 07:16:00,SystemResetWarning,0830.8,4.99,000.00,030.7,028.7,000.0,039.2,031.9,32.1,0000.2,0010.56,0004.88,0004.32
2023-06-23 07:17:00,SystemResetWarning,0830.8,5.00,000.00,030.7,028.2,000.0,039.2,031.9,32.1,0000.1,0010.59,0004.87,0004.30
2023-06-23 07:18:00,SystemResetWarning,0830.8,5.01,000.00,030.7,026.1,000.0,039.1,031.8,32.1,0000.6,0010.58,0004.88,0004.29
2023-06-23 07:19:00,SystemResetWarning,0830.7,5.01,000.00,030.6,025.1,000.0,039.0,031.7,32.1,0000.6,0010.12,0004.87,0004.27
2023-06-23 07:20:00,SystemResetWarning,0830.7,5.00,000.00,030.4,025.1,000.0,039.0,031.2,32.4,0000.4,0010.03,0004.82,0004.25
2023-06-23 07:21:00,SystemResetWarning,0830.7,5.01,000.00,030.3,025.5,000.0,039.0,031.1,32.7,0000.0,0009.60,0004.85,0004.25
2023-06-23 07:22:00,SystemResetWarning,0830.7,4.98,000.00,030.2,025.9,000.0,038.9,031.2,32.9,0000.0,0009.64,0004.87,0004.26
2023-06-23 07:23:00,SystemResetWarning,0830.7,5.00,000.00,030.2,026.4,000.0,038.9,031.2,33.0,0000.0,0009.64,0004.89,0004.27
2023-06-23 07:24:00,SystemResetWarning,0830.7,5.02,000.00,030.2,026.7,000.0,038.9,031.2,33.0,0000.0,0009.56,0004.88,0004.27
2023-06-23 07:25:00,SystemResetWarning,0830.7,4.99,000.00,030.1,027.0,000.0,038.8,031.2,33.1,0000.0,0009.44,0004.89,0004.27
2023-06-23 07:26:00,SystemResetWarning,0830.6,5.00,000.00,030.1,027.3,000.0,038.8,031.2,33.2,0000.0,0009.22,0004.93,0004.28
2023-06-23 07:27:00,SystemResetWarning,0830.7,5.00,000.00,030.1,027.5,000.0,038.8,031.3,33.2,0000.0,0009.35,0004.96,0004.29
2023-06-23 07:28:00,SystemResetWarning,0830.7,5.02,000.00,030.1,027.6,000.0,038.8,031.2,33.3,0000.0,0009.08,0004.98,0004.30
2023-06-23 07:29:00,SystemResetWarning,0830.7,4.99,000.00,030.1,027.8,000.0,038.8,031.3,33.3,0000.0,0009.00,0004.97,0004.30
2023-06-23 07:30:00,SystemResetWarning,0830.6,4.99,000.00,030.1,027.9,000.0,038.7,031.3,33.3,0000.0,0008.95,0004.95,0004.31
2023-06-23 07:31:00,SystemResetWarning,0830.7,5.01,000.00,030.1,028.0,000.0,038.7,031.3,33.3,0000.4,0008.98,0004.96,0004.32
2023-06-23 07:32:00,SystemResetWarning,0830.6,5.00,000.00,030.1,028.0,000.0,038.7,031.4,33.4,0000.0,0009.00,0004.97,0004.33
2023-06-23 07:33:00,SystemResetWarning,0830.6,5.00,000.00,030.1,028.1,000.0,038.7,031.4,33.3,0000.0,0008.89,0004.97,0004.33
2023-06-23 07:34:00,SystemResetWarning,0830.6,5.00,000.00,030.1,028.2,000.0,038.7,031.4,33.4,0000.0,0008.87,0004.95,0004.33
2023-06-23 07:35:00,SystemResetWarning,0830.6,5.00,000.00,030.1,028.2,000.0,038.7,031.4,33.4,0000.0,0009.12,0004.98,0004.33
2023-06-23 07:36:00,SystemResetWarning,0830.6,5.00,000.00,030.1,028.3,000.0,038.7,031.5,33.6,0000.0,0009.14,0005.00,0004.33
2023-06-23 07:37:00,SystemResetWarning,0830.5,5.00,000.00,030.1,028.3,000.0,038.7,031.5,33.8,0000.0,0008.76,0004.95,0004.33
2023-06-23 07:38:00,SystemResetWarning,0830.5,5.00,000.00,030.1,028.3,000.0,038.7,031.5,33.9,0000.0,0008.74,0004.97,0004.33
2023-06-23 07:39:00,SystemResetWarning,0830.5,4.99,000.00,030.2,028.3,000.0,038.7,031.5,34.1,0000.0,0008.64,0004.95,0004.34
2023-06-23 07:40:00,SystemResetWarning,0830.5,5.00,000.00,030.2,028.4,000.0,038.7,031.5,34.3,0000.0,0008.63,0004.96,0004.34
2023-06-23 07:41:00,SystemResetWarning,0830.5,5.00,000.00,030.2,028.4,000.0,038.7,031.5,34.3,0000.0,0008.63,0004.98,0004.35
2023-06-23 07:42:00,SystemResetWarning,0830.4,5.00,000.00,030.2,028.4,000.0,038.7,031.5,34.4,0000.0,0008.49,0004.97,0004.35
2023-06-23 07:43:00,SystemResetWarning,0830.4,5.00,000.00,030.2,028.5,000.0,038.7,031.6,34.5,0000.0,0008.36,0004.93,0004.33
2023-06-23 07:44:00,SystemResetWarning,0830.6,5.01,000.00,030.2,028.5,000.0,038.7,031.6,34.5,0000.0,0008.83,0004.93,0004.33
2023-06-23 07:45:00,SystemResetWarning,0830.5,5.00,000.00,030.2,028.5,000.0,038.7,031.6,34.5,0000.0,0009.10,0004.92,0004.33
2023-06-23 07:46:00,SystemResetWarning,0830.4,5.00,000.00,030.2,028.5,000.0,038.7,031.6,34.5,0000.0,0008.80,0004.86,0004.33
2023-06-23 07:47:00,SystemResetWarning,0830.4,4.99,000.00,030.2,028.5,000.0,038.7,031.6,34.5,0000.0,0008.74,0004.80,0004.33
2023-06-23 07:48:00,SystemResetWarning,0830.4,4.99,000.00,030.2,028.5,000.0,038.8,031.6,34.4,0000.3,0009.00,0004.81,0004.32
2023-06-23 07:49:00,SystemResetWarning,0830.4,5.00,000.00,030.2,028.5,000.0,038.8,031.6,34.5,0000.0,0009.04,0004.80,0004.31
2023-06-23 07:50:00,SystemResetWarning,0830.5,5.01,000.00,030.3,028.5,000.0,038.8,031.6,34.5,0000.1,0009.14,0004.81,0004.31
2023-06-23 07:51:00,SystemResetWarning,0830.4,5.00,000.00,030.3,028.5,000.0,038.8,031.6,34.4,0000.4,0009.18,0004.81,0004.31
2023-06-23 07:52:00,SystemResetWarning,0830.4,5.00,000.00,030.3,028.6,000.0,038.8,031.7,34.2,0000.0,0009.52,0004.81,0004.31
2023-06-23 07:53:00,SystemResetWarning,0830.4,5.00,000.00,030.3,028.6,000.0,038.8,031.7,34.1,0000.7,0009.89,0004.85,0004.30
2023-06-23 07:54:00,SystemResetWarning,0830.4,5.00,000.00,030.3,028.6,000.0,038.8,031.7,34.1,0002.8,0010.09,0004.90,0004.31
2023-06-23 07:55:00,SystemResetWarning,0830.3,5.00,000.00,030.3,028.6,000.0,038.8,031.7,34.0,0002.7,0009.83,0004.96,0004.32
2023-06-23 07:56:00,SystemResetWarning,0830.3,5.00,000.00,030.3,028.6,000.0,038.8,031.7,33.9,0002.5,0010.36,0005.01,0004.33
2023-06-23 07:57:00,SystemResetWarning,0830.3,5.00,000.00,030.3,028.7,000.0,038.8,031.7,33.7,0002.4,0010.63,0005.03,0004.34
2023-06-23 07:58:00,SystemResetWarning,0830.3,5.00,000.00,030.3,028.7,000.0,038.8,031.7,33.5,0002.2,0010.71,0005.10,0004.35
2023-06-23 07:59:00,SystemResetWarning,0830.3,5.00,000.00,030.3,028.7,000.0,038.9,031.7,33.2,0001.2,0010.53,0005.13,0004.37
